This is the latest recevied weather packets stored in our database for station/object W1GK. If no packets are shown the sender has not sent any weather packets the latest 1 day(s).
| Time | Temp. | Humidity | Pressure | Rain* | Wind** | Luminosity | Snow |
|---|---|---|---|---|---|---|---|
| 1778069399 | 15.56° C | 40% | 1014.4 hPa | 0 mm | - | 0 W/m² | - |
| 1778065796 | 16.11° C | 38% | 1014 hPa | 0 mm | - | 0 W/m² | - |
| 1778065200 | 16.11° C | 38% | 1013.9 hPa | 0 mm | - | 0 W/m² | - |
| 1778064598 | 16.11° C | 38% | 1013.8 hPa | 0 mm | - | 0 W/m² | - |
| 1778064000 | 16.11° C | 38% | 1013.8 hPa | 0 mm | - | 0 W/m² | - |
| 1778062797 | 16.11° C | 37% | 1013.5 hPa | 0 mm | - | 0 W/m² | - |
| 1778060997 | 16.67° C | 37% | 1013.3 hPa | 0 mm | - | 0 W/m² | - |
| 1778058001 | 16.67° C | 35% | 1013 hPa | 0 mm | - | 0 W/m² | - |
| 1778057397 | 17.22° C | 35% | 1012.9 hPa | 0 mm | - | 0 W/m² | - |
| 1778055598 | 17.22° C | 33% | 1012.8 hPa | 0 mm | - | 0 W/m² | - |
| 1778051402 | 17.78° C | 28% | 1013 hPa | 0 mm | - | 0 W/m² | - |
| 1778050201 | 17.78° C | 27% | 1012.8 hPa | 0 mm | - | 0 W/m² | - |
| 1778049601 | 17.78° C | 27% | 1012.7 hPa | 0 mm | - | 0 W/m² | - |
| 1778049000 | 17.78° C | 26% | 1012.6 hPa | 0 mm | - | 0 W/m² | - |
| 1778047200 | 17.78° C | 29% | 1012.3 hPa | 0 mm | - | 0 W/m² | - |
| 1778046600 | 17.78° C | 29% | 1012.3 hPa | 0 mm | - | 0 W/m² | - |
| 1778044800 | 18.33° C | 29% | 1012 hPa | 0 mm | - | 0 W/m² | - |
| 1778044199 | 18.33° C | 29% | 1011.9 hPa | 0 mm | - | 0 W/m² | - |
| 1778043001 | 18.89° C | 28% | 1011.7 hPa | 0 mm | - | 0 W/m² | - |
| 1778042400 | 18.89° C | 28% | 1011.6 hPa | 0 mm | - | 0 W/m² | - |
| 1778041802 | 19.44° C | 27% | 1011.6 hPa | 0 mm | - | 0 W/m² | - |
| 1778040000 | 19.44° C | 26% | 1011.1 hPa | 0 mm | - | 0 W/m² | - |
| 1778038800 | 20° C | 26% | 1010.8 hPa | 0 mm | - | 0 W/m² | - |
| 1778037000 | 20.56° C | 25% | 1010.3 hPa | 0 mm | - | 0 W/m² | - |
| 1778035801 | 21.11° C | 24% | 1009.9 hPa | 0 mm | - | 0 W/m² | - |
* Rain latest hour (hover to see other rain measurements)
** Current wind speed in m/s (hover to see current wind gust speed)